Location: Kailua
(21.4020°N, 157.7390°W)
Time: 04:05:56

Cosmos 2297 Rocket - Visible Passes

Search period start: 24 October 2016 00:00
Search period end: 03 November 2016 00:00
Orbit: 838 x 845 km, 71.0° (Epoch: 22 October)

Date Brightness Start Highest point End Pass type
(mag) Time Alt. Az. Time Alt. Az. Time Alt. Az.
31 Oct 4.6 20:07:24 10° S 20:07:27 10° S 20:07:27 10° S visible
01 Nov 4.0 19:52:23 10° S 19:53:55 19° S 19:53:55 19° S visible
02 Nov 3.2 19:37:22 10° S 19:40:29 30° SSE 19:40:29 30° SSE visible
